Weather WX

World > North America > United States > Ohio

Steuben, Ohio Regional Weather

Lat: 41.10N, Lon: 82.69W
Wx Zone: OHZ019
Warning FLW WEATHER ALERT - FLASH FLOOD WARNING (More Info. Click Here) Warning
Feedback

Steuben, OH Regional Weather

Expires:201906210000;;810813
ASUS41 KCLE 202312
RWRCLE
OHIO REGIONAL WEATHER ROUNDUP
NATIONAL WEATHER SERVICE WILMINGTON, OH
700 PM EDT THU JUN 20 2019

NOTE: "FAIR" INDICATES FEW OR NO CLOUDS BELOW 12,000 FEET WITH NO
SIGNIFICANT WEATHER AND/OR OBSTRUCTIONS TO VISIBILITY.


OHZ009>014-019>023-028>033-038-089-210000-
   NORTHEAST OHIO
  
CITY           SKY/WX    TMP DP  RH WIND       PRES   REMARKS
CLE-HOPKINS    LGT RAIN  65  63  93 N17       29.60R FOG              
CLE-LAKEFRONT  LGT RAIN  65  62  90 N17       29.56R FOG              
CUY CO. ARPT   NOT AVBL                                               
LORAIN-ELYRIA  LGT RAIN  63  58  83 N16G28    29.60R                  
ASHTABULA      CLOUDY    65  64  97 N6        29.57R                  
AKRON-CANTON   LGT RAIN  68  64  87 NW9       29.57R                  
WOOSTER        RAIN      65  64  97 NW5       29.58R FOG              
MANSFIELD      RAIN      67  66  97 W10G20    29.59R FOG              
YOUNGSTOWN     LGT RAIN  68  64  87 CALM      29.54S                  
$$
 

SKY/WX - Weather  TMP - Temperature  DP - Dew Point  RH - Relative Humidity
WIND - Wind Direction/Speed PRES - Barometric Pressure VSB - Visibility
WCI - Wind Chill Index E13G22 Wind - East Wind 13 mph/Gusts of 22 mph